This is the latest recevied weather packets stored in our database for station/object K5NWZ. If no packets are shown the sender has not sent any weather packets the latest 10 day(s).
| Time | Temp. | Humidity | Pressure | Rain* | Wind** | Luminosity | Snow |
|---|---|---|---|---|---|---|---|
| 1777561045 | 6.67° C | 54% | 1030.6 hPa | 0 mm | - | 112 W/m² | - |
| 1777560741 | 6.67° C | 55% | 1030.6 hPa | 0 mm | - | 111 W/m² | - |
| 1777560437 | 6.67° C | 56% | 1030.8 hPa | 0 mm | - | 91 W/m² | - |
| 1777560136 | 6.67° C | 55% | 1030.8 hPa | 0 mm | - | 75 W/m² | - |
| 1777559832 | 6.67° C | 56% | 1030.9 hPa | 0 mm | - | 59 W/m² | - |
| 1777559529 | 6.67° C | 56% | 1030.8 hPa | 0 mm | - | 54 W/m² | - |
| 1777559226 | 6.11° C | 56% | 1030.9 hPa | 0 mm | - | 56 W/m² | - |
| 1777558926 | 6.11° C | 56% | 1030.6 hPa | 0 mm | - | 55 W/m² | - |
| 1777558622 | 6.67° C | 55% | 1030.6 hPa | 0 mm | - | 56 W/m² | - |
| 1777558318 | 6.67° C | 56% | 1030.5 hPa | 0 mm | - | 56 W/m² | - |
| 1777558015 | 6.67° C | 55% | 1030.5 hPa | 0 mm | - | 60 W/m² | - |
| 1777557711 | 6.11° C | 58% | 1030.4 hPa | 0 mm | - | 61 W/m² | - |
| 1777557408 | 6.11° C | 58% | 1030.6 hPa | 0 mm | - | 65 W/m² | - |
| 1777557104 | 6.11° C | 58% | 1030.6 hPa | 0 mm | - | 57 W/m² | - |
| 1777556799 | 6.11° C | 56% | 1030.5 hPa | 0 mm | - | 55 W/m² | - |
| 1777556497 | 6.11° C | 58% | 1030.6 hPa | 0 mm | - | 54 W/m² | - |
| 1777556196 | 6.11° C | 58% | 1030.6 hPa | 0 mm | - | 53 W/m² | - |
| 1777555892 | 6.11° C | 59% | 1030.6 hPa | 0 mm | - | 47 W/m² | - |
| 1777555588 | 6.11° C | 58% | 1030.4 hPa | 0 mm | - | 36 W/m² | - |
| 1777555285 | 6.11° C | 58% | 1030.6 hPa | 0 mm | - | 29 W/m² | - |
| 1777554981 | 6.11° C | 57% | 1030.6 hPa | 0 mm | - | 30 W/m² | - |
| 1777554678 | 6.11° C | 58% | 1030.4 hPa | 0 mm | - | 27 W/m² | - |
| 1777554376 | 6.11° C | 58% | 1030.3 hPa | 0 mm | - | 25 W/m² | - |
| 1777554072 | 6.67° C | 56% | 1030.3 hPa | 0 mm | - | 23 W/m² | - |
| 1777553769 | 6.67° C | 55% | 1030.1 hPa | 0 mm | - | 17 W/m² | - |
* Rain latest hour (hover to see other rain measurements)
** Current wind speed in m/s (hover to see current wind gust speed)